Regional Weather Roundup
Issued by NWS

Home | Current Version | Previous Version | Graphics & Text | Print | Product List | Glossary On
Versions: 1 2 3 4 5 6 7 8 9 10 11 12 13 14 15 16 17 18 19 20 21 22 23 24 25 26 27 28 29 30 31 32 33 34 35 36 37 38 39 40 41 42 43 44 45 46 47 48 49
000
ASUS45 KCYS 152110
RWRWY

WYOMING REGIONAL WEATHER ROUNDUP
NATIONAL WEATHER SERVICE CHEYENNE WY
300 PM MDT MON SEP 15 2014

NOTE:  "FAIR" INDICATES FEW OR NO CLOUDS BELOW 12,000 FEET
WITH NO SIGNIFICANT WEATHER AND/OR OBSTRUCTIONS TO VISIBILITY.

WYZ001-152200-
YELLOWSTONE NATIONAL PARK

CITY           SKY/WX    TMP DP  RH WIND       PRES   REMARKS
LK YELLOWSTONE   N/A     68  28  22 SW8       30.32F
W YELLOWSTONE  NOT AVBL

$$
WYZ002>013-054>058-071-098>099-152200-
NORTHERN WYOMING

CITY           SKY/WX    TMP DP  RH WIND       PRES   REMARKS
JACKSON        MOSUNNY   77  28  16 SW16      30.20F
CODY           SUNNY     68  41  37 SW3       30.13F
GREYBULL       SUNNY     74  40  29 SE3       30.08F
WORLAND        SUNNY     77  41  27 VRB5      30.08F
SHERIDAN       SUNNY     72  44  36 CALM      30.10F
BUFFALO        SUNNY     73  42  32 E5        30.15F
GILLETTE       SUNNY     71  44  37 SE15      30.14F
HULETT         FAIR      70  37  30 MISG      30.17
NEWCASTLE      FAIR      66  34  30 S9G20     30.20

$$
WYZ014>020-022>026-101>103-152200-
CENTRAL WYOMING

CITY           SKY/WX    TMP DP  RH WIND       PRES   REMARKS
BIG PINEY      MOSUNNY   76  32  20 SW13      30.26F
PINEDALE       PTCLDY    72  32  23 CALM      30.27F
DUBOIS         FAIR      73  23  15 NW18G32   30.23S
LANDER         SUNNY     74  39  28 NW7       30.15F
RIVERTON       SUNNY     70  39  32 VRB3      30.16F
CASPER         SUNNY     80  32  17 SE10      30.16F
DOUGLAS        SUNNY     76  41  28 SE17G25   30.17F

$$
WYZ021-027>030-104>119-152200-
SOUTHERN WYOMING

CITY           SKY/WX    TMP DP  RH WIND       PRES   REMARKS
EVANSTON       PTSUNNY   76  29  17 W14G24    30.28F
KEMMERER       CLEAR     75  27  16 W20G28    30.28F
FORT BRIDGER   FAIR      79  31  17 W10       30.30F
ROCK SPRINGS   MOSUNNY   79  31  17 W15G26    30.25F
DIXON          FAIR      78  37  23 W6        30.29F
RAWLINS        MOSUNNY   77  27  15 SW12      30.27F
SARATOGA       FAIR      75  32  20 W10       30.29F
LARAMIE        MOSUNNY   73  27  18 MISG      30.30F
CHEYENNE       MOSUNNY   69  35  28 S14       30.29F
TORRINGTON     SUNNY     69  47  45 E17G23    30.19F
PINE BLUFFS    FAIR      70  36  28 S10G21    30.26F

$$


USA.gov is the U.S. government's official web portal to all federal, state and local government web resources and services.